COMPLETED DISPATCHED CALLS FOR SERVICE

Welcome to the Jacksonville Sheriff’s Office Completed Dispatched Calls for Service webpage. This page displays calls for service made to the Jacksonville Sheriff's Office that have recently been completed. The data on this page is refreshed automatically.

This information is not intended to be used as official crime data. This program does not provide information about all crimes, and excludes specific incidents such as sexual assaults and child abuse.

Disclaimer: The Jacksonville Sheriff's Office makes every effort to produce and publish current and accurate information. No warranties, expressed or implied, are provided for the data herein, its use, or its interpretation. The services provided are for informational purposes only and should not be relied on for any type of legal action.

Last refreshed 5/19 23:47:03

Incident # Dispatched Block Address Signal Call Description  
202200293791 5-19 22:36 POWERS AVE / MORTON ST 1050 TRAFFIC STOP
202200293659 5-19 22:36 1300 LACLEDE AVE 22 DOMESTIC
202200293722 5-19 22:32 900 LANE AVE S 63 DISPUTE
202200293706 5-19 22:30 1100 EDGEWOOD AVE S 63 DISPUTE
202200293774 5-19 22:26 BAYMEADOWS RD / OLD KINGS RD S 1050 TRAFFIC STOP
202200293683 5-19 22:26 9500 REGENCY SQUARE BLVD 63 DISPUTE
202200293771 5-19 22:26 PHILIPS HWY / BAYMEADOWS RD 1050 TRAFFIC STOP
202200293770 5-19 22:25 4700 HARLOW BLVD 1050 TRAFFIC STOP
202200293765 5-19 22:24 2100 MEHARRY AVE 13 SUSPICIOUS PERSON
202200293767 5-19 22:24 4400 SUNBEAM RD 13 SUSPICIOUS PERSON
202200293760 5-19 22:23 7700 ARGYLE FOREST BLVD 76 ASSIST OTHER AGENCY
202200293766 5-19 22:23 8TH ST E / FRANKLIN ST 1050 TRAFFIC STOP
202200293761 5-19 22:22 100 6TH ST W 64 NOISE COMPLAINT
202200293748 5-19 22:22 13100 CITY CENTER BLVD 63 DISPUTE
202200293762 5-19 22:21 14000 OUTBACK DR 1050 TRAFFIC STOP
202200293758 5-19 22:20 5900 UNIVERSITY BLVD W 13 SUSPICIOUS PERSON
202200293755 5-19 22:19 DUVAL/AIRPORT 1050 TRAFFIC STOP
202200293754 5-19 22:19 DETROIT ST / COMMONWEALTH AVE 1050 TRAFFIC STOP
202200293751 5-19 22:17 PHILIPS HWY / SUNBEAM RD 1050 TRAFFIC STOP
202200293745 5-19 22:17 8700 ATLANTIC BLVD 2 63 DISPUTE IMPAIRED/INTOXICATED
202200293662 5-19 22:14 6100 RAINTREE RD 64 NOISE COMPLAINT
202200293647 5-19 22:11 4600 WRICO DR 88 ASSAULT
202200293742 5-19 22:11 3800 EMERSON ST 13 SUSPICIOUS PERSON
202200293740 5-19 22:10 BARNES RD / BOEING DR 1050 TRAFFIC STOP
202200293666 5-19 22:09 3000 OLD RIVER RD E 63 DISPUTE
202200293733 5-19 22:05 HOOD RD / DEERFOOT LN N 1050 TRAFFIC STOP
202200293732 5-19 22:04 AIRPORT RD / DUVAL RD 1050 TRAFFIC STOP
202200293710 5-19 22:04 3600 ST JOHNS BLUFF RD S 9J THEFT JUST OCCURRED
202200293730 5-19 22:04 1500 WALNUT ST 63 DISPUTE
202200293448 5-19 22:02 I95 EXPY N 4 AUTO CRASH
202200293720 5-19 22:02 5600 EDENFIELD RD 33 DISCHARGING OF FIREARM
202200293184 5-19 22:02 US301 HWY S / GILRIDGE RD 16 ROAD OBSTRUCTION
202200291841 5-19 22:02 I295 N ON RAMP / WILSON BLVD 4 AUTO CRASH
202200293704 5-19 22:00 1100 EDGEWOOD AVE S 63 DISPUTE
202200293729 5-19 21:59 NEW BERLIN RD / DUNNS VIEW DR 1050 TRAFFIC STOP
202200293728 5-19 21:58 PHILIPS HWY / EMERSON ST 1050 TRAFFIC STOP
202200293724 5-19 21:58 1600 AIRPORT 1050 TRAFFIC STOP
202200293716 5-19 21:53 9000 SOUTHSIDE BLVD 76 ASSIST OTHER AGENCY
202200293713 5-19 21:52 100 IMESON PARK BLVD 14C VANDALISM CONVEYANCE
202200293691 5-19 21:52 1700 LAURA ST N 63 DISPUTE
202200293684 5-19 21:52 8700 ATLANTIC BLVD 2 63 DISPUTE IMPAIRED/INTOXICATED
202200293703 5-19 21:52 8400 CONCORD BLVD W 13 SUSPICIOUS PERSON
202282009549 5-19 21:52 OCEAN BLVD / AHERN ST 63 DISPUTE
202200293699 5-19 21:49 ROOSEVELT BLVD / DANCY ST 16 ROAD OBSTRUCTION
202200293656 5-19 21:48 500 BAY ST E 1066 CANCEL
202200004781 5-19 21:48 100 U N F DR 50 FOUND/ABANDONED PROPERTY
202200293708 5-19 21:47 7300 103RD ST 88J ASSAULT JUST OCCURRED
202200293696 5-19 21:45 43RD ST W / DODGE RD 13 SUSPICIOUS PERSON
202200293705 5-19 21:41 COMMONWEALTH AVE / ST CLAIR ST 1050 TRAFFIC STOP
202200293619 5-19 21:39 3700 HOOVER LN 22 DOMESTIC
202200293667 5-19 21:34 10700 MAIN ST N 63 DISPUTE
202200293688 5-19 21:30 1400 AIRPORT RD 1050 TRAFFIC STOP
202200293682 5-19 21:25 MAX LEGGETT PKWY / CITY CENTER BLVD 1050 TRAFFIC STOP
202200293668 5-19 21:23 11TH ST E / FRANKLIN ST 33 DISCHARGING OF FIREARM
202200293679 5-19 21:22 1600 AIRPORT RD 1050 TRAFFIC STOP
202200293677 5-19 21:22 1600 AIRPORT RD 1050 TRAFFIC STOP
202200293665 5-19 21:21 2100 MARKET ST N 37 UNVERIFIED 911 CALL
202200293658 5-19 21:21 9600 OLD BAYMEADOWS RD 56 JUVENILE COMPLAINT
202200293664 5-19 21:20 2000 ROGERO RD 27 MENTALLY ILL PERSON
202200293557 5-19 21:19 ARLINGTON XY SERVICE RD / UNIVERSITY BLVD N 54 ILLEGALLY PARKED CAR
202200293670 5-19 21:17 BEACH BLVD / FOSTER DR 1050 TRAFFIC STOP
202200293663 5-19 21:14 12200 SAGO AVE 1050 TRAFFIC STOP
202200293633 5-19 21:13 700 MARKET ST N 37 UNVERIFIED 911 CALL
202200293646 5-19 21:13 9600 WEXFORD RD 54 ILLEGALLY PARKED CAR
202200293417 5-19 21:13 3000 ERNEST ST 22 DOMESTIC
202200293655 5-19 21:11 3600 UNIVERSITY BLVD S 37 UNVERIFIED 911 CALL
202200293597 5-19 21:11 9000 JASPER AVE 6388 DISPUTE WITH ASSAULT
202200293653 5-19 21:09 AIRPORT CENTER DR 38 TRAFFIC ASSIGNMENT
202200293542 5-19 21:09 4200 UNIVERSITY BLVD N 22 DOMESTIC
202200004780 5-19 21:07 U N F DR / ECO RD 16 ROAD OBSTRUCTION
202200293648 5-19 21:05 PHILIPS HWY / EMERSON ST 13 SUSPICIOUS PERSON
202200293640 5-19 21:04 PARK ST / MARGARET ST 13 SUSPICIOUS PERSON
202200293641 5-19 21:04 BAYMEADOWS RD E / GATE PKWY 12 RECKLESS DRIVER
202200293643 5-19 21:02 AIRPORT RD / YANKEE CLIPPER DR 1050 TRAFFIC STOP
202200293624 5-19 21:01 HARTXEXIT E ATL RP / ATLANTIC BLVD 60 SUICIDE OR ATTEMPT
202200293639 5-19 21:00 700 MARKET ST N 76 ASSIST OTHER AGENCY
202200293638 5-19 20:59 OLD ST AUGUSTINE RD / LIVINGSTON RD 1050 TRAFFIC STOP
202200293634 5-19 20:57 YANKEE CLIPPER DR / OWENS RD 1050 TRAFFIC STOP
202200293618 5-19 20:56 3800 UNIVERSITY BLVD W 37 UNVERIFIED 911 CALL
202200293629 5-19 20:56 INTERNATIONAL AIRPORT BLVD / AIRPORT SERVICE RD N 1050 TRAFFIC STOP
202200293625 5-19 20:54 MLKEXIT PHOENIX RP / PHOENIX AVE 1050 TRAFFIC STOP
202200293516 5-19 20:53 7800 CHERRY FIELD DR 64 NOISE COMPLAINT
202200293622 5-19 20:53 GOLFAIR BLVD / SPRINGFIELD BLVD 1050 TRAFFIC STOP
202200293620 5-19 20:52 6900 STUART AVE 95 FRAUD/FORGED (CHECK, ID, RX)
202200293616 5-19 20:51 1600 DAVIDSON ST 63 DISPUTE
202200293615 5-19 20:50 UNIVERSITY BLVD W / PHILIPS HWY 1050 TRAFFIC STOP
202200293613 5-19 20:48 1700 AIRPORT RD 1050 TRAFFIC STOP
202200293387 5-19 20:48 3400 BLANDING BLVD 95ID IDENTITY THEFT
202282009546 5-19 20:46 300 MAYPORT RD 4 53 TRAFFIC CRASH PERSON INJURED
202200293608 5-19 20:45 OAKWOOD DR / METZ ST 63 DISPUTE
202200293609 5-19 20:45 BRENTWOOD AVE / GOLFAIR BLVD 1050 TRAFFIC STOP
202200293180 5-19 20:44 2800 HOLLY POINT DR 3388 DISCHARGING FIREARM AT PERSON
202200293603 5-19 20:43 9300 103RD ST 26C CARDIAC AED
202200293600 5-19 20:43 11800 ALDEN RD 22 DOMESTIC
202200293604 5-19 20:42 OLD KINGS RD S / LISA DR 1050 TRAFFIC STOP
202200293428 5-19 20:42 8500 ARGYLE BUSINESS LOOP 9 THEFT
202200293602 5-19 20:42 800 PRUDENTIAL DR 50 FOUND/ABANDONED PROPERTY
202282009543 5-19 20:40 2400 MAYPORT RD 1050 TRAFFIC STOP
202200293155 5-19 20:39 100 DAMES POINT BRG S 96 ASSIST MOTORIST
202200293595 5-19 20:38 1000 MONUMENT RD 63 DISPUTE
202200293590 5-19 20:38 8800 BEACH BLVD 9J THEFT JUST OCCURRED
202200293535 5-19 20:36 7000 MERRILL RD 3388 DISCHARGING FIREARM AT PERSON
202200293594 5-19 20:35 MAIN ST N / 27TH ST E 1050 TRAFFIC STOP
202200293568 5-19 20:30 10000 GATE PKWY N 14C VANDALISM CONVEYANCE
202200293587 5-19 20:28 6000 YOUNGERMAN CIR 1050 TRAFFIC STOP
202200293582 5-19 20:27 100 18TH ST E 2 22 DOMESTIC DISTURBANCE
202200293584 5-19 20:27 POWERS AVE / MORTON ST 1050 TRAFFIC STOP
202200293576 5-19 20:24 ATLANTIC BLVD / ACME ST 63 DISPUTE
202200293573 5-19 20:24 10900 SAN JOSE BLVD 5582 HOLDING ONE FOR SHOPLIFTING
202200293505 5-19 20:23 CRAVEN RD / SUNBEAM RD 64 NOISE COMPLAINT
202292208121 5-19 20:21 BUSCH / MAIN 1050 TRAFFIC STOP
202200293457 5-19 20:20 8500 ARGYLE BUSINESS LOOP 22 DOMESTIC
202200293571 5-19 20:18 AIRPORT/YANK 1050 TRAFFIC STOP
202200293567 5-19 20:16 PICKETT ST / COURT ST 37 UNVERIFIED 911 CALL
202200293361 5-19 20:16 3000 15TH ST W 9 THEFT
202200293566 5-19 20:15 MAIN ST N / 14TH ST E 1050 TRAFFIC STOP
202200293556 5-19 20:14 1200 KENDALL TOWN BLVD 2288 DOMESTIC DISPUTE WITH/ASSAULT
202200293411 5-19 20:11 3600 KERNAN BLVD S 64 NOISE COMPLAINT
202200293545 5-19 20:09 2100 MARKET ST N 37 UNVERIFIED 911 CALL
202200293553 5-19 20:08 4800 GREENLAND RD 4 AUTO CRASH
202200293519 5-19 20:07 1900 ATLANTIC BLVD 2 63 DISPUTE IMPAIRED/INTOXICATED
202292208120 5-19 20:05 4800 GREENLAND RD 4 AUTO CRASH
202200293547 5-19 20:04 100 JULIA ST N 0 13 ARMED SUSPICIOUS PERSON
202200293546 5-19 20:04 6600 FT CAROLINE ROAD 13 SUSPICIOUS PERSON
202200293530 5-19 20:03 7500 BEACH BLVD 2288 DOMESTIC DISPUTE WITH/ASSAULT
202200293525 5-19 20:02 ECTOR RD N / MERRILL RD 4 AUTO CRASH
202200293540 5-19 20:00 AIRPORT RD / YANKEE CLIPPER DR 1050 TRAFFIC STOP
202200293527 5-19 19:59 1700 LAURA ST N 63 DISPUTE
202200293536 5-19 19:56 YOUNGERMAN CIR E / BLANDING BLVD 1050 TRAFFIC STOP
202200293496 5-19 19:54 6800 OLD KINGS RD S 68 CON GAME/FLIM FLAM
202200293517 5-19 19:52 7400 BEACH BLVD 9J THEFT JUST OCCURRED
202200293529 5-19 19:52 5200 SOUTEL DR 76 ASSIST OTHER AGENCY
202200293419 5-19 19:51 7100 VAN HUSS CT 22 DOMESTIC
202200293455 5-19 19:49 12800 JORDAN BLAIR CT 2 22 DOMESTIC DISTURBANCE
202200293469 5-19 19:48 1200 HERITAGE ESTATES TRCE 22 DOMESTIC
202200293379 5-19 19:48 6500 RAMONA BLVD 28 DELIVER MESSAGE
202200293488 5-19 19:47 8900 MADISON AVE 1066 CANCEL
202200293430 5-19 19:47 13500 CITICARDS WAY 22 DOMESTIC
202200293520 5-19 19:45 STATE ST E / LIBERTY ST N 4 53 TRAFFIC CRASH PERSON INJURED
202200293515 5-19 19:42 BOULEVARD / 12TH ST W 1050 TRAFFIC STOP
202200293450 5-19 19:42 1000 EDGEWOOD AVE N 4 AUTO CRASH
202200293503 5-19 19:42 5100 CYPRESS CREST LN 22 DOMESTIC
202200293513 5-19 19:41 6000 YOUNGERMAN CIR 13 SUSPICIOUS PERSON
202200293466 5-19 19:40 MONUMENT RD / MCCORMICK RD 63 DISPUTE
202200293470 5-19 19:38 600 BEECHWOOD ST 63 DISPUTE
202200293506 5-19 19:38 3900 LA MIRADA DR N 2 22 DOMESTIC DISTURBANCE
202200293149 5-19 19:37 100 DAMES POINT BRG S 96 ASSIST MOTORIST
202200293501 5-19 19:35 ATLANTIC BLVD / HODGES BLVD 4 53 TRAFFIC CRASH PERSON INJURED
202200293500 5-19 19:34 SPIRES AVE / KINGS RD 1050 TRAFFIC STOP
202282009540 5-19 19:32 11TH ST BEACH ACCESS 73 DRUG INVESTIGATION
202200293333 5-19 19:32 9300 LOCKHEED LN 21C BURGLARY CONVEYANCE
202200293498 5-19 19:32 2600 MERWYN RD 0 60 SUICIDE THREAT W/WEAPON
202200293497 5-19 19:32 ST JOHNS BLUFF RD N / MONUMENT RD 4 53 TRAFFIC CRASH PERSON INJURED
202200293460 5-19 19:32 5500 FIRESTONE RD 63 DISPUTE
202200293482 5-19 19:31 8300 ROCKY CREEK DR 63 DISPUTE
202200293384 5-19 19:30 7600 TOWNSEND RD 63 DISPUTE
202200293449 5-19 19:30 1200 BLUEHILL DR N 49 REPORT TO HOSPITAL
202200293489 5-19 19:30 800 DUNN AVE 63 DISPUTE
202200293440 5-19 19:29 6300 FOREST STUMP LN 4 AUTO CRASH
202200293485 5-19 19:27 4500 ATLANTIC BLVD 26EB PERSON WITH EXTREME BEHAVIOR
202200293483 5-19 19:26 400 PECAN PARK RD 56 JUVENILE COMPLAINT
202200293461 5-19 19:26 100 JEFFERSON ST N 27 MENTALLY ILL PERSON
202200293484 5-19 19:24 16TH ST W / PERRY ST 1050 TRAFFIC STOP
202200293452 5-19 19:21 5600 EDENFIELD RD 27 MENTALLY ILL PERSON
202200293421 5-19 19:21 1700 29TH ST W 63 DISPUTE
202200293474 5-19 19:20 1700 KINGS RD 1066 CANCEL
202200293471 5-19 19:19 5900 UNIVERSITY BLVD W 63 DISPUTE
202200293472 5-19 19:18 2600 POST ST 76 ASSIST OTHER AGENCY
202200293467 5-19 19:17 CRUZ RD / SPRING GLEN RD 13 SUSPICIOUS PERSON
202200293465 5-19 19:16 NEW KINGS RD / EDGEWOOD AVE N 1 IMPAIRED/DRUNK DRIVER
202200293458 5-19 19:15 3000 ALONSO RD 19 ANIMAL INVESTIGATION
202200293464 5-19 19:15 12500 ST MARTINS DR S 54 ILLEGALLY PARKED CAR
202200293438 5-19 19:14 4000 RINGNECK DR 54 ILLEGALLY PARKED CAR
202200293106 5-19 19:10 I95 N OFF RAMP / MAX LEGGETT PKWY 4 AUTO CRASH
202200293297 5-19 19:09 10000 SKINNER LAKE DR 22 DOMESTIC
202200293433 5-19 19:09 9700 TOUCHTON RD 14C VANDALISM CONVEYANCE
202282009539 5-19 19:08 800 SEMINOLE RD 77 WELL BEING CHECK
202200293451 5-19 19:08 ATLANTIC BLVD / DEWEY PL 1050 TRAFFIC STOP
202200293443 5-19 19:06 1700 WALNUT ST 1066 CANCEL
202200293393 5-19 19:06 3800 SAN PABLO RD S 9 THEFT
202200293418 5-19 19:05 4700 SOUTEL DR 9 THEFT
202200293442 5-19 19:03 I95 N OFF RAMP / GOLFAIR BLVD 1050 TRAFFIC STOP
202200293435 5-19 19:01 5300 HECKSCHER DR 7 DEAD PERSON
202200293397 5-19 19:01 500 BAY ST E 63 DISPUTE
202200293434 5-19 19:00 100 32ND ST W 2 63 DISPUTE IMPAIRED/INTOXICATED
202200293429 5-19 18:59 1000 BUNKER HILL BLVD 1066 CANCEL
202200293432 5-19 18:59 13500 CITICARDS WAY 60 SUICIDE OR ATTEMPT
202200293431 5-19 18:58 4100 FAIRFAX ST 0 88J ARMED ASSAULT JUST OCCURRED
202200293400 5-19 18:58 4600 MIDTOWN PKWY 19 ANIMAL INVESTIGATION
202200293415 5-19 18:57 9000 MENDOCINO CT 63 DISPUTE
202200292990 5-19 18:56 6800 MERRILL RD 22 DOMESTIC
202200293425 5-19 18:56 11200 GUINN RD 63 DISPUTE
202200293426 5-19 18:56 11200 SAN JOSE BLVD 60 SUICIDE OR ATTEMPT
202200293409 5-19 18:55 9200 HIPPS RD 79 OBSCENE / THREAT CALL OR LETTER
202200293422 5-19 18:55 8100 CONCORD BLVD E 22 DOMESTIC
202200293412 5-19 18:54 1900 ERLINE DR 64 NOISE COMPLAINT
202200293414 5-19 18:54 14500 BARRED OWL WAY 13 SUSPICIOUS PERSON
202200293386 5-19 18:53 UNIVERSITY BLVD W / ST AUGUSTINE RD 4 AUTO CRASH
202200293423 5-19 18:53 BEAVER ST W / ACORN ST 1050 TRAFFIC STOP
202200293382 5-19 18:53 2900 DOWNING ST 2 63 DISPUTE IMPAIRED/INTOXICATED
202200293336 5-19 18:53 5400 COLLINS RD 22 DOMESTIC
202200293395 5-19 18:52 6800 NORMANDY BLVD 9P THEFT IN PROGRESS
202200293300 5-19 18:50 4300 CONFEDERATE POINT RD 19 ANIMAL INVESTIGATION
202200293405 5-19 18:47 11100 WANDERING OAKS DR 4 AUTO CRASH
202200293364 5-19 18:47 PARK CITY DR / RAMPART RD 16 ROAD OBSTRUCTION
202200293410 5-19 18:46 800 DUNN AVE 2 63 DISPUTE IMPAIRED/INTOXICATED
202282009538 5-19 18:46 600 AMBERJACK LN 56 JUVENILE COMPLAINT
202200293370 5-19 18:44 103RD ST / I295 N OFF RAMP 16 ROAD OBSTRUCTION
202200293201 5-19 18:43 5400 COLLINS LAKES DR 2288 DOMESTIC DISPUTE WITH/ASSAULT
202200293401 5-19 18:42 COLLINS RD / RAMPART RD 4 AUTO CRASH
202200293340 5-19 18:42 2100 LADY DI LN 63 DISPUTE
202200293374 5-19 18:41 3400 BOULEVARD 63 DISPUTE
202200293253 5-19 18:41 100 ARLINGTON RD N 63 DISPUTE
202200293403 5-19 18:41 6600 DIXIE ST 76 ASSIST OTHER AGENCY
202200293375 5-19 18:40 MONUMENT RD / MCCORMICK RD 63 DISPUTE
202200293307 5-19 18:39 CESERY BLVD / ARLINGTON XY SERVICE RD 3 HIT AND RUN CRASH
202200293399 5-19 18:39 BIRD RD / WADE RD 33 DISCHARGING OF FIREARM
202200293339 5-19 18:39 3200 JUSTINA RD 21R BURGLARY RESIDENCE
202200293310 5-19 18:39 6700 GREENFERN LN 8 MISSING PERSON
202200293396 5-19 18:39 8000 NARANJA DR W 1066 CANCEL
202200293116 5-19 18:39 1400 COVE LANDING DR 63 DISPUTE
202282009537 5-19 18:38 900 SAILFISH DR 60 SUICIDE OR ATTEMPT
202200293391 5-19 18:38 100 ICW BEACH BRG W 16 ROAD OBSTRUCTION
202200293388 5-19 18:38 5600 COLLINS RD 63 DISPUTE
202282009536 5-19 18:36 20TH ST BEACH ACCESS 19 ANIMAL INVESTIGATION
202200293112 5-19 18:32 2400 QUAIL AVE 63 DISPUTE
202200293311 5-19 18:32 LIBERTY ST N / 2ND ST E 4 AUTO CRASH
202200293323 5-19 18:32 1300 MAIN ST N 63 DISPUTE
202200293368 5-19 18:32 9800 GATE PKWY N 63 DISPUTE
202200293366 5-19 18:31 5600 CALIFORNIA AVE 63 DISPUTE
202200293332 5-19 18:31 12400 BISCAYNE BLVD 14R VANDALISM RESIDENCE
202200293260 5-19 18:29 1600 UNIVERSITY BLVD S 4 AUTO CRASH
202200293385 5-19 18:29 7600 BLANDING BLVD 63 DISPUTE
202200293356 5-19 18:28 EMERSON ST / PHILIPS HWY 68 CON GAME/FLIM FLAM
202282009534 5-19 18:28 18TH ST BEACH ACCESS 19 ANIMAL INVESTIGATION
202200293281 5-19 18:25 1700 BROOM ST 63 DISPUTE
202200293358 5-19 18:25 11200 RIFLE RUN RD 27 MENTALLY ILL PERSON
202200293369 5-19 18:25 RICKER RD / MORSE AVE 11 ABANDONED VEHICLE
202200293381 5-19 18:24 SOUTHSIDE BLVD 38 TRAFFIC ASSIGNMENT
202200293347 5-19 18:22 100 MATHEWS BRG E 16 ROAD OBSTRUCTION
202200293346 5-19 18:20 4500 SHELBY AVE 11 ABANDONED VEHICLE
202200293338 5-19 18:20 PEACH DR / LEAHY RD 63 DISPUTE
202200293365 5-19 18:19 5100 NORWOOD AVE 61 FIGHT
202200293367 5-19 18:19 2700 POST ST 76 ASSIST OTHER AGENCY
202200293372 5-19 18:19 400 PARK ST 88 ASSAULT
202200293321 5-19 18:18 ARLINGTON EXPY / SB SSCON WB ARLXPY RP 4 AUTO CRASH
202282009532 5-19 18:16 20TH ST BEACH ACCESS 19 ANIMAL INVESTIGATION
202200293160 5-19 18:13 400 CENTURY 21 DR 63 DISPUTE
202200293348 5-19 18:13 2700 COACHMAN LAKES DR 76 ASSIST OTHER AGENCY
202200293343 5-19 18:12 3200 ERNEST ST 0 27 ARMED MENTALLY ILL PERSON
202200293351 5-19 18:12 4200 JAMMES RD 4 53 TRAFFIC CRASH PERSON INJURED
202200293350 5-19 18:11 700 LIBERTY ST N 73 DRUG INVESTIGATION
202200293349 5-19 18:11 700 LIBERTY ST N 73 DRUG INVESTIGATION
202200293330 5-19 18:11 6000 YOUNGERMAN CIR 23I ROBBERY INDIVIDUAL
202200293345 5-19 18:10 3700 UNIVERSITY BOULEVARD WEST 4 AUTO CRASH
202200293285 5-19 18:08 7200 OVERLAND PARK BLVD E 63 DISPUTE
202200293326 5-19 18:08 9500 ARGYLE FOREST BLVD 3 HIT AND RUN CRASH
202200293342 5-19 18:07 1200 MONUMENT RD 1050 TRAFFIC STOP
202200293207 5-19 18:06 1100 DUNN AVE 63 DISPUTE
202200293279 5-19 18:05 1000 GOLFAIR BLVD 63 DISPUTE
202200293288 5-19 18:04 4400 MELVIN CIR W 22 DOMESTIC
202200293234 5-19 18:03 1200 18TH ST W 28 DELIVER MESSAGE
202200293322 5-19 18:03 6800 TINKERBELL LN 22 DOMESTIC
202200293256 5-19 18:02 5000 PALMER AVE 50 FOUND/ABANDONED PROPERTY
202200293090 5-19 18:02 I295 N OFF RAMP / ZOO PKWY 4 AUTO CRASH
202200293329 5-19 18:01 18TH ST W / WILSON ST 4 53 TRAFFIC CRASH PERSON INJURED
202200293314 5-19 18:00 8400 LINCREST DR W 76 ASSIST OTHER AGENCY
202200293318 5-19 18:00 UNIVERSITY BLVD W / PHILIPS HWY 76 ASSIST OTHER AGENCY
202200293258 5-19 17:59 ADAMS ST W / BROAD ST N 4 AUTO CRASH
202200293308 5-19 17:56 CASSAT AVE / PLYMOUTH ST 4 53 TRAFFIC CRASH PERSON INJURED
202200293306 5-19 17:55 COLLINS RD / BLANDING BLVD 16 ROAD OBSTRUCTION
202200293241 5-19 17:55 7700 KONA AVE 6388 DISPUTE WITH ASSAULT
202200293286 5-19 17:53 6700 STUART AVE 63 DISPUTE
202200293276 5-19 17:53 800 WYOLEN ST 22 DOMESTIC
202200293287 5-19 17:51 7000 AZALEA GROVE DR 0 63 ARMED DISPUTE
202200293259 5-19 17:50 13400 GRAN BAY PKWY 88 ASSAULT
202200293166 5-19 17:49 1500 16TH ST W 63 DISPUTE
202200293298 5-19 17:48 WILSON BLVD / BLANDING BLVD 1050 TRAFFIC STOP
202200293247 5-19 17:46 6600 HARLOW BLVD 63 DISPUTE
202200293278 5-19 17:45 1900 JAMMES RD 63 DISPUTE
202200293262 5-19 17:45 4500 KENNDLE RD 22 DOMESTIC
202200293290 5-19 17:45 SOUTHSIDE BLVD / W ATLANTICEXIT N SS RP 4 53 TRAFFIC CRASH PERSON INJURED
202200293292 5-19 17:44 4900 BULLS BAY HWY 4 AUTO CRASH
202200293272 5-19 17:44 BEACH BLVD / ST JOHNS BLUFF RD S 68 CON GAME/FLIM FLAM
202200293280 5-19 17:41 WITSCHEN AVE / 22ND ST W 13 SUSPICIOUS PERSON
202200293134 5-19 17:41 1700 11TH ST W 63 DISPUTE
202200293284 5-19 17:41 CATOMA ST / TIMUQUANA RD 1050 TRAFFIC STOP
202200293283 5-19 17:41 3800 MAIN ST N 1050 TRAFFIC STOP
202200293113 5-19 17:39 3100 DIGNAN ST 63 DISPUTE
202200293084 5-19 17:39 2300 GAYLAND RD 8T MISSING PERSON (TELESERVE)
202200293274 5-19 17:37 1000 DUNN AVE 4 AUTO CRASH
202200292857 5-19 17:36 100 LIMANN RD 63 DISPUTE
202200293275 5-19 17:35 10TH ST W / PEARL ST N 1050 TRAFFIC STOP
202200293242 5-19 17:35 900 ODESSA DR E 63 DISPUTE
202200293269 5-19 17:34 NOCATEE PKWY / PHILIPS HWY 4 AUTO CRASH
202200293249 5-19 17:34 4500 PEARL ST N 63 DISPUTE
202200293243 5-19 17:32 14300 BEACH BLVD 13 SUSPICIOUS PERSON
202200293168 5-19 17:32 9300 103RD ST 1066 CANCEL
202200293267 5-19 17:31 10800 JUNIA ST 76 ASSIST OTHER AGENCY
202200293271 5-19 17:31 NB I95/EDGEWOODS 1050 TRAFFIC STOP
202200293164 5-19 17:30 400 CENTURY 21 DR 9J THEFT JUST OCCURRED
202200293248 5-19 17:30 1000 DAY AVE 63 DISPUTE
202200293223 5-19 17:30 11800 ATLANTIC BLVD 13 SUSPICIOUS PERSON
202200293265 5-19 17:28 BRENTWOOD BLVD / OAK ARBOR CIR 1050 TRAFFIC STOP
202200293261 5-19 17:27 700 SKYMARKS DR 1050 TRAFFIC STOP
202200293130 5-19 17:26 2100 KINGS PARK DR 56 JUVENILE COMPLAINT
202200293257 5-19 17:26 10800 BIRCHARD LN 60 SUICIDE OR ATTEMPT
202200293232 5-19 17:25 7800 MORDECAI CT 63 DISPUTE
202200293105 5-19 17:24 10300 SHELBY CREEK RD N 63 DISPUTE
202200293255 5-19 17:24 20TH ST W / JUPITER AVE 1050 TRAFFIC STOP
202200293208 5-19 17:22 5600 AVENUE B 63 DISPUTE
202200293246 5-19 17:21 7200 NORMANDY BLVD 4 AUTO CRASH
202200293235 5-19 17:19 KINGS RD / ALMEDA ST 4 AUTO CRASH
202200293123 5-19 17:19 200 11TH ST W 9 THEFT
202200293228 5-19 17:18 5100 SHENANDOAH AVE 63 DISPUTE
202200293097 5-19 17:18 5500 HILLMAN DR 8 MISSING PERSON
202200293182 5-19 17:16 7400 SALISBURY RD 19 ANIMAL INVESTIGATION
202200293238 5-19 17:14 PHILIPS/BOWDEN 1050 TRAFFIC STOP
202200293237 5-19 17:14 BLANDING BLVD / SHIRLEY AVE 1050 TRAFFIC STOP
202200293236 5-19 17:14 1000 FRAZIER ST 9T THEFT (TELESERVE)
202200293213 5-19 17:13 5100 NORWOOD AVE 63 DISPUTE
202200293173 5-19 17:13 7700 BLANDING BLVD 27 MENTALLY ILL PERSON
202200293224 5-19 17:12 8500 TOWER FALLS DR 56 JUVENILE COMPLAINT
202200293175 5-19 17:12 9700 TOUCHTON RD 63 DISPUTE
202200293221 5-19 17:11 11700 FT CAROLINE LAKES CT 63 DISPUTE
202200293231 5-19 17:11 BEACH BLVD 38 TRAFFIC ASSIGNMENT
202200293230 5-19 17:11 700 ERNONA ST 9 THEFT
202200293089 5-19 17:11 400 MONUMENT RD 95ID IDENTITY THEFT
202200293225 5-19 17:10 6800 PHILIPS HWY 63 DISPUTE
202200293222 5-19 17:10 1200 32ND ST W 60 SUICIDE OR ATTEMPT
202200293108 5-19 17:08 2500 EDISON AVE 63 DISPUTE
202200293191 5-19 17:07 3300 ROGERO RD 0 63 ARMED DISPUTE
202200293216 5-19 17:06 BROOKLYN RD / AVENUE B 0 88P ARMED ASSAULT IN PROGRESS
202200293214 5-19 17:06 7900 MERRILL RD 9T THEFT (TELESERVE)
202200293188 5-19 17:04 4400 HEAVENLINK PL 76 ASSIST OTHER AGENCY
202200293211 5-19 17:04 2100 33RD ST W 9J THEFT JUST OCCURRED
202200293200 5-19 17:03 8100 MESSINA DR 3 HIT AND RUN CRASH
202200293206 5-19 17:03 3400 WENTWORTH CIR E 3388 DISCHARGING FIREARM AT PERSON
202200293204 5-19 17:02 RIVERSIDE AVE / LEILA ST 4 AUTO CRASH
202200293187 5-19 17:00 MERRILL RD / TOWNSEND BLVD 4 AUTO CRASH
202200293203 5-19 16:59 NEW KINGS RD / EDGEWOOD AVE W 3 HIT AND RUN CRASH
202200293195 5-19 16:59 1000 GOLFAIR BLVD 63 DISPUTE
202200293185 5-19 16:58 7200 LEM TURNER RD 4 AUTO CRASH
202200293039 5-19 16:57 3000 16TH ST W 63 DISPUTE
202200293197 5-19 16:57 MONCRIEF RD / 22ND ST W 1050 TRAFFIC STOP
202200293192 5-19 16:55 MAIN ST N / 27TH ST E 1050 TRAFFIC STOP
202200293125 5-19 16:54 4300 SPRING PARK RD 56 JUVENILE COMPLAINT
202200293189 5-19 16:54 I95 S OFF RAMP / MARTIN LUTHER KING JR PKWY 1050 TRAFFIC STOP
202200293174 5-19 16:53 ADAMS ST W / I95 ON RAMP 16 ROAD OBSTRUCTION
202282009530 5-19 16:52 SARGO RD / CUTLASS DR 77 WELL BEING CHECK
202200293183 5-19 16:51 2800 HOLLY POINT DR 18 PERSON SHOT
202200293111 5-19 16:50 12100 LEM TURNER RD 50 FOUND/ABANDONED PROPERTY
202200292774 5-19 16:48 REDPOLL AVE / NEW KINGS RD 73 DRUG INVESTIGATION
202200293172 5-19 16:48 TREDINICK PKWY / SOUTHSIDE CONNECTOR SERVICE RD 16 ROAD OBSTRUCTION
202200293179 5-19 16:48 2600 ADAMS LAKE BLVD 38 TRAFFIC ASSIGNMENT
202282009529 5-19 16:48 TIFFANY BY THE SEA 19 ANIMAL INVESTIGATION
202200293176 5-19 16:47 TRANSYLVANIA AVE / BLANDING BLVD 1050 TRAFFIC STOP
202200293066 5-19 16:46 700 ERNONA ST 9 THEFT
202200293085 5-19 16:46 7500 103RD ST 56 JUVENILE COMPLAINT
202200293169 5-19 16:45 11TH ST W / DOCTOR ROY BAKER ST 1050 TRAFFIC STOP
202200293163 5-19 16:45 1100 BERTRAM ST 3 HIT AND RUN CRASH
202200293158 5-19 16:45 9900 NEW KINGS RD 22 DOMESTIC
202200293157 5-19 16:44 14100 FISH EAGLE DR E 63 DISPUTE
202200293061 5-19 16:43 1800 TOWNSEND BLVD 9 THEFT
202200293165 5-19 16:43 MAYPORT RD / DUTTON ISLAND RD W 1066 CANCEL
202200293161 5-19 16:41 7000 COLLINS RD 50 FOUND/ABANDONED PROPERTY
202200293153 5-19 16:41 500 STOCKTON ST 76 ASSIST OTHER AGENCY
202200293159 5-19 16:41 300 8TH ST E 1050 TRAFFIC STOP
202200293064 5-19 16:39 7300 HAWKS BRANCH CT 21R BURGLARY RESIDENCE
202200293146 5-19 16:36 4400 ROOSEVELT BLVD 4 AUTO CRASH
202200293141 5-19 16:36 1600 FAIRFAX ST 8 MISSING PERSON
202200293147 5-19 16:36 100 LAVILLA CENTER DR 63 DISPUTE
202200293144 5-19 16:36 600 MC DUFF AVE S 95 FRAUD/FORGED (CHECK, ID, RX)
202200293137 5-19 16:35 7600 103RD ST 3 HIT AND RUN CRASH
202200293124 5-19 16:33 1000 LIBERTY ST N 14R VANDALISM RESIDENCE
202200293051 5-19 16:33 5300 DODGE RD 64 NOISE COMPLAINT
202200293138 5-19 16:32 DAVIS ST N / REIMAN ST 1050 TRAFFIC STOP
202200293119 5-19 16:32 BESSENT RD / ROBINWOOD LN 12 RECKLESS DRIVER
202200293094 5-19 16:31 5900 NORMANDY BLVD 63 DISPUTE
202200293129 5-19 16:31 11700 TANAGER DR 22 DOMESTIC
202200293136 5-19 16:30 500 ADAMS ST W 76 ASSIST OTHER AGENCY
202200293133 5-19 16:30 500 E ADAMS 76 ASSIST OTHER AGENCY
202200293126 5-19 16:26 103RD ST / FIRESTONE RD 1050 TRAFFIC STOP
202200293102 5-19 16:25 6800 PHILIPS HWY 63 DISPUTE
202200293099 5-19 16:24 100 ARLINGTON RD S 22 DOMESTIC
202200293022 5-19 16:23 6800 NORMANDY BLVD 88 ASSAULT
202200293015 5-19 16:22 5100 CLARENDON RD 22 DOMESTIC
202200293074 5-19 16:22 8900 HARE AVE 56 JUVENILE COMPLAINT
202200293110 5-19 16:21 8500 WAGENHALS RD 76 ASSIST OTHER AGENCY
202292208115 5-19 16:21 7300 PARKER SCHOOL RD 9 THEFT
202282009526 5-19 16:19 500 FLEET LANDING BLVD 50 FOUND/ABANDONED PROPERTY
202200293072 5-19 16:19 100 38TH ST W 95 FRAUD/FORGED (CHECK, ID, RX)
202200293083 5-19 16:18 MELSON AVE / COMMONWEALTH AVE 4 AUTO CRASH
202200293038 5-19 16:17 8800 OLD KINGS RD S 56 JUVENILE COMPLAINT
202200292999 5-19 16:15 2100 45TH ST W 2288 DOMESTIC DISPUTE WITH/ASSAULT
202200293057 5-19 16:14 SOUTHSIDE BLVD / IVEY RD 16 ROAD OBSTRUCTION
202200293052 5-19 16:14 8100 HONEYSUCKLE LN 10 VEHICLE THEFT
202200293031 5-19 16:13 10100 BAYMEADOWS RD 95 FRAUD/FORGED (CHECK, ID, RX)
202200293098 5-19 16:13 2900 KNIGHTS LN E 76 ASSIST OTHER AGENCY
202292208112 5-19 16:13 500 DUVAL STATION RD 9 THEFT
202200293095 5-19 16:12 2600 MAYPORT RD 76 ASSIST OTHER AGENCY
202200293091 5-19 16:12 1200 CARTHAGE DR 63 DISPUTE
202200293093 5-19 16:11 2300 MYRTLE AVE N 56 JUVENILE COMPLAINT
202200293071 5-19 16:11 1600 SOUTHSIDE BLVD 3 HIT AND RUN CRASH
202200293060 5-19 16:09 7000 OLD KINGS RD S 63 DISPUTE
202200293088 5-19 16:07 1400 32ND 1050 TRAFFIC STOP
202200293087 5-19 16:07 BAY/I95 1050 TRAFFIC STOP
202200293040 5-19 16:06 8000 PARENTAL CIR 2 63 DISPUTE IMPAIRED/INTOXICATED
202200292617 5-19 16:06 9500 BAYMEADOWS RD 50 FOUND/ABANDONED PROPERTY
202200292984 5-19 16:06 3700 SAN PABLO RD S 73 DRUG INVESTIGATION
202200293080 5-19 16:04 11400 BEACH BLVD 63 DISPUTE
202200293016 5-19 16:04 6200 BARNES RD S 63 DISPUTE
202200292993 5-19 16:03 6000 BEACH BLVD 63 DISPUTE
202282009527 5-19 16:03 1000 HIBISCUS ST 76 ASSIST OTHER AGENCY
202200293073 5-19 16:02 I295 S OFF RAMP / DUNN AVE 1050 TRAFFIC STOP
202200293012 5-19 16:01 7700 BLANDING BLVD 68 CON GAME/FLIM FLAM
202200293024 5-19 16:00 100 33RD ST W 16 ROAD OBSTRUCTION
202200293068 5-19 15:59 1600(7171) BLK 32ND ST W 1050 TRAFFIC STOP
202200293065 5-19 15:59 8100 WOODS AVE 63 DISPUTE
202200292970 5-19 15:58 1800 BLANDING BLVD 21R BURGLARY RESIDENCE
202200292917 5-19 15:58 11500 GERADO RD 63 DISPUTE
202200293056 5-19 15:57 1700 LIBERTY ST N 56 JUVENILE COMPLAINT
202200293007 5-19 15:54 4000 OLDFIELD CROSSING DR 50 FOUND/ABANDONED PROPERTY
202200293023 5-19 15:54 100 KING ST 2288 DOMESTIC DISPUTE WITH/ASSAULT
202292208114 5-19 15:52 3800 MAIN ST N 63 DISPUTE
202200293050 5-19 15:52 295SB/JTB 1050 TRAFFIC STOP
202200292893 5-19 15:51 5000 CLEVELAND RD 6388 DISPUTE WITH ASSAULT
202200293046 5-19 15:51 7100 PETER DR 60 SUICIDE OR ATTEMPT
202200293000 5-19 15:50 900 MONUMENT RD 76 ASSIST OTHER AGENCY
202200293043 5-19 15:50 11000 OLD ST AUGUSTINE RD 52 ILLEGAL DUMPING
202200293006 5-19 15:47 2100 RIVERSIDE AVE 21CT BURGLARY CONVEYANCE TELESERVE
202200293035 5-19 15:47 1900 TUSKEGEE RD 4 AUTO CRASH
202200293036 5-19 15:45 12500 SAN JOSE BLVD 38 TRAFFIC ASSIGNMENT
202200292975 5-19 15:45 6100 BEACH BLVD 9 THEFT
202200292919 5-19 15:45 2000 HAMILTON ST 63 DISPUTE
202200292872 5-19 15:43 8400 GATE PKWY W 10 VEHICLE THEFT
202200293033 5-19 15:43 200 SB 38 TRAFFIC ASSIGNMENT
202200293029 5-19 15:42 3800 MAIN ST N 63 DISPUTE
202200293025 5-19 15:42 9100 MERRILL RD 3 HIT AND RUN CRASH
202200293030 5-19 15:41 1700 23RD ST W 1050 TRAFFIC STOP
202200293027 5-19 15:41 1800 DUNN AVE 76 ASSIST OTHER AGENCY
202200292978 5-19 15:40 ATLANTIC BLVD / SAN PABLO RD N 3 HIT AND RUN CRASH
202200292937 5-19 15:40 500 SPRING FOREST AVE 27 MENTALLY ILL PERSON
202200292985 5-19 15:39 1300 DAVIS ST N 63 DISPUTE
202200293018 5-19 15:38 400 WOODBINE ST 9 THEFT
202200293009 5-19 15:33 4500 KENNDLE RD 21RP BURGLARY RESIDENCE IN PROGRESS
202200292973 5-19 15:33 300 BOWLAN ST 63 DISPUTE
202200292969 5-19 15:32 8300 GEOFFREY CT 63 DISPUTE
202200292950 5-19 15:31 1600 45TH ST W 63 DISPUTE
202200292995 5-19 15:30 EDISON AVE / STOCKTON ST 4 AUTO CRASH
202200293002 5-19 15:30 800 ARLINGTON RD 73 DRUG INVESTIGATION
202200292998 5-19 15:29 ZOO PKWY / IMESON PARK BLVD 4 AUTO CRASH
202200292894 5-19 15:29 5400 RIVERBREEZE CT 63 DISPUTE
202200292793 5-19 15:28 3300 BEAVER ST W 2 63 DISPUTE IMPAIRED/INTOXICATED
202200292996 5-19 15:27 LAKE RUN BLVD / MAIN ST N 1050 TRAFFIC STOP
202200292992 5-19 15:26 WB MATHEWS 4 AUTO CRASH
202200292986 5-19 15:26 1100 BROWARD RD 10 VEHICLE THEFT
202200292809 5-19 15:25 500 STEVENS ST 95 FRAUD/FORGED (CHECK, ID, RX)
202200292989 5-19 15:25 9300 103RD ST 22 DOMESTIC
202200292987 5-19 15:24 400 MOBY DICK DR S 38 TRAFFIC ASSIGNMENT
202200292982 5-19 15:22 SOUTHSIDE BLVD / JTB E OFF RAMP 4 AUTO CRASH
202282009524 5-19 15:21 2400 MAYPORT RD 9 THEFT
202200292979 5-19 15:21 I95 S OFF RAMP / EMERSON ST 96 ASSIST MOTORIST
202200292972 5-19 15:19 800 PRUDENTIAL DR 63 DISPUTE
202200292963 5-19 15:18 11700 PALM LAKE DR 63 DISPUTE
202200292962 5-19 15:18 4000 PIPER DR 76 ASSIST OTHER AGENCY
202200292965 5-19 15:18 1100 CLEVELAND ST 4 AUTO CRASH
202200292229 5-19 15:18 I95 S OFF RAMP / KINGS RD 4 AUTO CRASH
202200292961 5-19 15:17 2400 CESERY BLVD 76 ASSIST OTHER AGENCY
202200292964 5-19 15:17 CHAFFEE RD N / BEAVER ST W 4 AUTO CRASH
202200292957 5-19 15:15 8000 LOCH LOMOND LN 22 DOMESTIC
202200292959 5-19 15:14 1900 LARGO RD 76 ASSIST OTHER AGENCY
202200292953 5-19 15:14 4200 MONCRIEF RD W 22 DOMESTIC
202200292922 5-19 15:14 6100 WAKULLA SPRINGS RD 37 UNVERIFIED 911 CALL
202292208111 5-19 15:14 3700 UNIVERSITY CLUB BLVD 38 TRAFFIC ASSIGNMENT
202200292955 5-19 15:11 100 MATHEWS BRG W 96 ASSIST MOTORIST
202200292952 5-19 15:11 BERT RD / BLACKARD RD 2288 DOMESTIC DISPUTE WITH/ASSAULT
202200292942 5-19 15:11 7000 COLLINS RD 9P THEFT IN PROGRESS
202200292945 5-19 15:10 ARLINGTON EXPY / SS CEXIT W ARLX RP 16 ROAD OBSTRUCTION
202282009523 5-19 15:09 100 SEMINOLE RD 1050 TRAFFIC STOP
202200292946 5-19 15:08 100 MATHEWS BRG W 4 AUTO CRASH
202200292947 5-19 15:07 BLANDING BLVD / SUNDERLAND RD 4 AUTO CRASH
202200292948 5-19 15:07 ATLANTIC BLVD SERVICE RD / KERNAN BLVD N 1050 TRAFFIC STOP
202200292940 5-19 15:06 13900 BEACH BLVD 6388 DISPUTE WITH ASSAULT
202200292941 5-19 15:03 6200 MERRILL RD 1050 TRAFFIC STOP
202200292918 5-19 15:02 5900 ST AUGUSTINE RD 63 DISPUTE
202282009522 5-19 15:02 SEMINOLE RD / DAVID ST 1050 TRAFFIC STOP
202200292716 5-19 15:01 1600 45TH ST W 33 DISCHARGING OF FIREARM
202200292934 5-19 15:00 700 LIBERTY ST N 73 DRUG INVESTIGATION
202200292933 5-19 15:00 1900 JAMMES RD 9 THEFT
202200292931 5-19 15:00 4300 TRENTON DR N 2 IMPAIRED/INTOXICATED
202200292923 5-19 15:00 8200 DIX ELLIS TRL 63 DISPUTE
202200292879 5-19 14:59 9800 GATE PKWY N 0 88 ARMED ASSAULT
202200292930 5-19 14:59 700 LIBERTY ST N 73 DRUG INVESTIGATION
202200292929 5-19 14:59 700 LIBERTY ST N 73 DRUG INVESTIGATION
202200292928 5-19 14:59 700 LIBERTY ST N 73 DRUG INVESTIGATION
202200292926 5-19 14:59 700 LIBERTY ST N 73 DRUG INVESTIGATION
202200292927 5-19 14:59 700 LIBERTY ST N 73 DRUG INVESTIGATION
202200292925 5-19 14:59 700 LIBERTY ST N 73 DRUG INVESTIGATION
202200292913 5-19 14:59 4500 BULL RUN RD 22 DOMESTIC
202200292727 5-19 14:59 3600 LENOX AVE 10 VEHICLE THEFT
202200292910 5-19 14:58 5500 GREEN FOREST DR 1066 CANCEL
202200292899 5-19 14:56 9700 ATLANTIC BLVD 63 DISPUTE
202200292878 5-19 14:54 5300 NORWOOD AVE 61 FIGHT
202292208108 5-19 14:54 3800 FOREST BLVD 38 TRAFFIC ASSIGNMENT
202200292784 5-19 14:53 6700 COTTON TAIL LN 9 THEFT
202200292909 5-19 14:52 10600 OLD ST AUGUSTINE RD 76 ASSIST OTHER AGENCY
202200292915 5-19 14:52 700 DUVAL STATION RD 16 ROAD OBSTRUCTION
202200292848 5-19 14:52 5800 SAN JUAN AVE 9 THEFT
202200292652 5-19 14:51 14600 MARSH ISLAND LN 63 DISPUTE
202282009521 5-19 14:51 SEMINOLE RD / DAVID ST 1050 TRAFFIC STOP
202200292900 5-19 14:48 1100 DIVISION ST 57 PERSON CALLING FOR HELP
202200292903 5-19 14:48 MAIN ST N / EASTPORT RD 1050 TRAFFIC STOP
202200292898 5-19 14:46 UNIVERSITY BLVD N / FT CAROLINE RD 1050 TRAFFIC STOP
202200292874 5-19 14:45 1100 COVE LANDING DR 27 MENTALLY ILL PERSON
202200292892 5-19 14:45 2700 HAMILTON CIRCLE 57 PERSON CALLING FOR HELP
202200292891 5-19 14:44 6300 PINE COVE LN 7 DEAD PERSON
202292208106 5-19 14:43 JWJ 38 TRAFFIC ASSIGNMENT
202200292827 5-19 14:43 7300 GRANT AVE 23I ROBBERY INDIVIDUAL
202200292890 5-19 14:43 900 GIRVIN RD 1050 TRAFFIC STOP
202200292888 5-19 14:42 500 ADAMS ST E 73 DRUG INVESTIGATION
202200292796 5-19 14:42 3000 POST ST 14C VANDALISM CONVEYANCE
202200292886 5-19 14:42 500 WONDERWOOD DR 76 ASSIST OTHER AGENCY
202200292882 5-19 14:40 6100 BLANDING BLVD 10 VEHICLE THEFT
202200292766 5-19 14:40 1900 JAMMES RD 9 THEFT
202200292883 5-19 14:39 7200 103RD 56 JUVENILE COMPLAINT
202200292846 5-19 14:39 500 WONDERWOOD DR 76 ASSIST OTHER AGENCY
202200292792 5-19 14:39 9300 103RD ST 63 DISPUTE
202200292873 5-19 14:37 BEACH BLVD / CENTRAL PKWY 4 53 TRAFFIC CRASH PERSON INJURED
202200292871 5-19 14:35 5300 DODGE RD 27 MENTALLY ILL PERSON
202282009519 5-19 14:34 SEMINOLE RD / SEASPRAY AVE 1050 TRAFFIC STOP
202282009518 5-19 14:34 300 SHERRY DR 38 TRAFFIC ASSIGNMENT
202200292736 5-19 14:34 700 PARK ST 63 DISPUTE
202282009517 5-19 14:34 SEMINOLE RD / SEASPRAY AVE 38 TRAFFIC ASSIGNMENT
202200292867 5-19 14:33 300 UNIVERSITY BLVD N 4 AUTO CRASH
202200292794 5-19 14:33 4600 SALISBURY RD 22 DOMESTIC
202200292850 5-19 14:32 5800 NORMANDY BLVD 63 DISPUTE
202200292860 5-19 14:31 FIRESTONE RD / MORSE AVE 3 HIT AND RUN CRASH
202200292858 5-19 14:31 600 STOCKTON ST 4 AUTO CRASH
202200292733 5-19 14:31 103RD ST / LAMBING RD 1066 CANCEL
202292208104 5-19 14:31 3600 RIBAULT SCENIC DR 34 OFFICER CALLING FOR HELP
202200292673 5-19 14:30 400 8TH ST W 76 ASSIST OTHER AGENCY
202200292861 5-19 14:30 300 RENNE DR N 21R BURGLARY RESIDENCE
202200292852 5-19 14:29 2600 UNIVERSITY BLVD N 22 DOMESTIC
202200292863 5-19 14:29 MAIN ST N / NEW BERLIN RD 1050 TRAFFIC STOP
202200292743 5-19 14:27 6800 MERRILL RD 22 DOMESTIC
202200292856 5-19 14:27 HECKSCHER DR / I295 N OFF RAMP 4 AUTO CRASH
202200292851 5-19 14:26 PHILIPS HWY / I95 S OFF RAMP 11 ABANDONED VEHICLE
202200292854 5-19 14:25 4600 RIVER CITY DR 3 HIT AND RUN CRASH
202200292711 5-19 14:22 5100 QUAN DR 63 DISPUTE
202200292598 5-19 14:21 10000 GATE PKWY N 21C BURGLARY CONVEYANCE
202200292676 5-19 14:21 1000 SEBA ST 22 DOMESTIC
202200292816 5-19 14:20 3000 DANUBE CT 4 AUTO CRASH
202200292842 5-19 14:20 MONCRIEF RD / 34TH ST W 4 53 TRAFFIC CRASH PERSON INJURED
202282009516 5-19 14:19 13700 ATLANTIC BLVD 1050 TRAFFIC STOP
202200292840 5-19 14:18 4600 BELFORT RD 13 SUSPICIOUS PERSON
202200292834 5-19 14:16 COLLEGE ST / MYRA ST 1050 TRAFFIC STOP
202200292830 5-19 14:16 12100 LEM TURNER RD 5582 HOLDING ONE FOR SHOPLIFTING
202200292800 5-19 14:15 11300 QUAILHOLLOW DR 2 22 DOMESTIC DISTURBANCE
202200292828 5-19 14:15 300 LAURA ST N 27 MENTALLY ILL PERSON
202200292725 5-19 14:15 11000 PHILIPS HWY 1066 CANCEL
202200292643 5-19 14:14 1500 16TH ST W 63 DISPUTE
202200292824 5-19 14:13 100 ST JOHNS BLUFF RD N 13 SUSPICIOUS PERSON
202200292826 5-19 14:13 ROOSEVELT BLVD / ROBERT D GORDON RD 16 ROAD OBSTRUCTION
202200292821 5-19 14:12 100 32ND ST W 27 MENTALLY ILL PERSON
202200292797 5-19 14:11 1600 MARGARET ST 3 HIT AND RUN CRASH
202200292805 5-19 14:11 7100 BLANDING BLVD 4 AUTO CRASH
202200292810 5-19 14:11 4100 HILLWOOD RD 63 DISPUTE
202200292814 5-19 14:08 9400 SENTRY DR 76 ASSIST OTHER AGENCY
202200292815 5-19 14:07 6300 PHILIPS HWY 1050 TRAFFIC STOP
202200292813 5-19 14:07 BEACH BLVD / ANNISTON RD 1050 TRAFFIC STOP
202200292812 5-19 14:06 100 HART BRG S 1050 TRAFFIC STOP
202200292811 5-19 14:06 GILCHRIST CT / GILCHRIST RD 10R VEHICLE THEFT RECOVERY
202200292808 5-19 14:05 DIXIE CLIPPER DR / PECAN PARK RD 4 AUTO CRASH
202200292802 5-19 14:05 3900 SOUTHSIDE BLVD 9 THEFT
202200292807 5-19 14:05 PHILIPS HWY / BOWDEN RD 1050 TRAFFIC STOP
202200292791 5-19 14:05 800 PRUDENTIAL DR 95ID IDENTITY THEFT
202200292806 5-19 14:05 FERNDALE PLACE 38 TRAFFIC ASSIGNMENT
202200292188 5-19 14:04 WILSON BLVD / OLD MIDDLEBURG RD N 91 TRAFFIC LIGHT/RR CROSSING MALFUNCTION
202200292155 5-19 14:04 BEACH BLVD / I295 N ON RAMP 91 TRAFFIC LIGHT/RR CROSSING MALFUNCTION
202200292033 5-19 14:04 ATLANTIC BLVD / HODGES BLVD 91 TRAFFIC LIGHT/RR CROSSING MALFUNCTION
202200292637 5-19 14:03 200 CENTURY ST 63 DISPUTE
202200292801 5-19 14:02 7800 INVERMERE BLVD 12 RECKLESS DRIVER
202200292706 5-19 14:02 12100 LEM TURNER RD 9 THEFT
202200292707 5-19 14:01 5000 BILKEN DR E 23I ROBBERY INDIVIDUAL
202200292787 5-19 13:58 BEACH BLVD / ST JOHNS BLUFF RD S 16 ROAD OBSTRUCTION
202282009515 5-19 13:58 MAYPORT/ ATLANTIC BLVD 1050 TRAFFIC STOP
202200292786 5-19 13:57 APPROX LOC: 8045 COLLINS RD 12 RECKLESS DRIVER
202200292768 5-19 13:57 10900 SAN JOSE BLVD 5582 HOLDING ONE FOR SHOPLIFTING
202200292610 5-19 13:57 2400 PIRATE CT 54 ILLEGALLY PARKED CAR
202200292782 5-19 13:55 1700 RIVERVIEW DR 19 ANIMAL INVESTIGATION
202200292757 5-19 13:54 7800 NEW KINGS RD 80 PROSTITUTION (ONLY)
202200292779 5-19 13:54 1800 KINGS AVE 52 ILLEGAL DUMPING
202200292778 5-19 13:54 6300 PHILIPS HWY 1050 TRAFFIC STOP
202200292777 5-19 13:54 PARK ST / PENINSULAR PL 13 SUSPICIOUS PERSON
202200292773 5-19 13:52 BAYMEADOWS RD / PHILIPS HWY 1050 TRAFFIC STOP
202200292646 5-19 13:51 4700 LAWNVIEW ST 13 SUSPICIOUS PERSON
202200292726 5-19 13:51 100 2ND ST E 13 SUSPICIOUS PERSON
202200292698 5-19 13:51 MERRILL RD / TOWNSEND BLVD 4 AUTO CRASH
202200292770 5-19 13:50 12500 SAN JOSE BLVD 38 TRAFFIC ASSIGNMENT
202282009514 5-19 13:50 500 ATLANTIC BLVD 1050 TRAFFIC STOP
202200292758 5-19 13:49 400 67TH ST W 19 ANIMAL INVESTIGATION
202200292491 5-19 13:49 1200 6TH ST W 2288 DOMESTIC DISPUTE WITH/ASSAULT
202200292765 5-19 13:48 100 LAVILLA CENTER DR 76 ASSIST OTHER AGENCY
202200292763 5-19 13:48 TERRY PARKER DR N / PAINE AVE 76 ASSIST OTHER AGENCY
202200292752 5-19 13:47 3000 EDGEWOOD AVE W 87 DAMAGED PROPERTY
202200292749 5-19 13:47 9500 REGENCY SQUARE BLVD N 63 DISPUTE
202200292755 5-19 13:47 11700 SAN JOSE BLVD 63 DISPUTE
202200292759 5-19 13:44 1500 ENGLISH ST 10R VEHICLE THEFT RECOVERY
202200292579 5-19 13:42 13200 ATLANTIC BLVD 4 AUTO CRASH
202200292719 5-19 13:41 2600 ST JOHNS BLUFF RD S 13 SUSPICIOUS PERSON
202200292751 5-19 13:41 3400 SOUTHSIDE BLVD 1050 TRAFFIC STOP
202200292746 5-19 13:41 7600 COLLINS RD 12 RECKLESS DRIVER
202200292745 5-19 13:41 10300 MIDTOWN PKWY 63 DISPUTE
202200292739 5-19 13:40 10700 WIMBLEDON DR 1066 CANCEL
202200292741 5-19 13:39 100 HART BRG S 96 ASSIST MOTORIST
202200292740 5-19 13:39 TOWN CENTER PKWY / MIDTOWN PKWY 1050 TRAFFIC STOP
202200292732 5-19 13:37 BEACH BLVD / UNIVERSITY BLVD S 12 RECKLESS DRIVER
202200292730 5-19 13:37 2100 KERNAN BLVD S 76 ASSIST OTHER AGENCY
202200292651 5-19 13:36 11300 BAYMEADOWS RD 6388 DISPUTE WITH ASSAULT
202200292538 5-19 13:36 COMMONWEALTH AVE / ELLIS RD N 73 DRUG INVESTIGATION
202200292724 5-19 13:36 DUNN AVE / I295 N OFF RAMP 54 ILLEGALLY PARKED CAR
202200292729 5-19 13:35 8000 COLLINS RD 12 RECKLESS DRIVER
202200292583 5-19 13:35 6000 BEACH BLVD 9 THEFT
202200292501 5-19 13:34 1700 HODGES BLVD 10 VEHICLE THEFT
202200292723 5-19 13:34 5200 CONNIE JEAN RD 76 ASSIST OTHER AGENCY
202200292722 5-19 13:33 6300 PHILIPS HWY 1050 TRAFFIC STOP
202200292720 5-19 13:33 MERRILL RD / FT CAROLINE RD 1050 TRAFFIC STOP
202292208096 5-19 13:32 500 DUVAL STATION RD 9 THEFT
202200292718 5-19 13:32 8000 COLLINS RD 12 RECKLESS DRIVER
202200292575 5-19 13:32 8500 ATLANTIC BLVD 10 VEHICLE THEFT
202200292691 5-19 13:31 6800 NORMANDY BLVD 19 ANIMAL INVESTIGATION
202200292656 5-19 13:31 5100 SHENANDOAH AVE 88 ASSAULT
202292208095 5-19 13:30 4200 DIGNAN ST 17 PERSON DOWN OR SICK
202282009513 5-19 13:28 PENMAN RD / ATLANTIC BLVD 1050 TRAFFIC STOP
202200292662 5-19 13:28 1100 ALTA VISTA ST 22 DOMESTIC
202200292397 5-19 13:27 700 EDGEWOOD AVE N 21B BURGLARY BUSINESS
202200292645 5-19 13:27 12200 ATLANTIC BLVD 60 SUICIDE OR ATTEMPT
202200292238 5-19 13:26 11500 CENTRAL PKWY 21C BURGLARY CONVEYANCE
202200292704 5-19 13:26 4800 TOWN CENTER PKWY 1050 TRAFFIC STOP
202200292650 5-19 13:25 5300 WELLER AVE 13 SUSPICIOUS PERSON
202200292702 5-19 13:24 2600 SOUTHSIDE BLVD 1050 TRAFFIC STOP
202200292701 5-19 13:24 2800 DUNN AVE 76 ASSIST OTHER AGENCY
202200292684 5-19 13:24 7900 BLANDING BLVD 63 DISPUTE
202200292569 5-19 13:23 7100 ATLANTIC BLVD 63 DISPUTE
202200292699 5-19 13:23 BOWDEN RD / SALISBURY RD 4 AUTO CRASH
202200292671 5-19 13:22 2100 ST JOHNS BLUFF RD S 4 53 TRAFFIC CRASH PERSON INJURED
202200292692 5-19 13:22 8TH ST W / JAMES HALL DR 3 HIT AND RUN CRASH
202200292695 5-19 13:21 6300 PHILIPS HWY 1050 TRAFFIC STOP
202200292654 5-19 13:21 9400 FLORIDA MINING BLVD E 9T THEFT (TELESERVE)
202200292660 5-19 13:20 4200 MONCRIEF RD W 0 13 ARMED SUSPICIOUS PERSON
202200292682 5-19 13:18 4400 TOWN CENTER PKWY 63 DISPUTE
202200292688 5-19 13:18 100 MATHEWS BRG W 96 ASSIST MOTORIST
202200292683 5-19 13:16 100 MATHEWS BRG W 16 ROAD OBSTRUCTION
202200292584 5-19 13:15 5500 118TH ST 9 THEFT
202200292640 5-19 13:15 10500 LEM TURNER RD 76 ASSIST OTHER AGENCY
202200292679 5-19 13:15 4800 TOWN CENTER PKWY 1050 TRAFFIC STOP
202200292570 5-19 13:14 8800 PISCES CIR N 22 DOMESTIC
202200292674 5-19 13:13 I295 N OFF RAMP / 103RD ST 13 SUSPICIOUS PERSON
202200292517 5-19 13:13 1000 UNION ST E 63 DISPUTE
202200292666 5-19 13:12 500 22ND ST W 63 DISPUTE
202200292667 5-19 13:12 6800 WILSON BLVD 4 AUTO CRASH
202200292655 5-19 13:10 COLLINS RD / I295 N OFF RAMP 13 SUSPICIOUS PERSON
202200292629 5-19 13:09 12700 QUINCY BAY DR 14CT VANDALISM CONVEYANCE TELESERVE
202200292658 5-19 13:08 6400 FT CAROLINE RD 1050 TRAFFIC STOP
202200292657 5-19 13:08 2000 FOURAKER RD 76 ASSIST OTHER AGENCY
202200292585 5-19 13:08 1100 CARLOTTA RD W 95IDT IDENTITY THEFT TELESERVE
202200292653 5-19 13:06 TOWN CENTER 68 CON GAME/FLIM FLAM
202200292602 5-19 13:05 3700 MCMILLAN AVE 63 DISPUTE
202200292588 5-19 13:04 4900 MONCRIEF RD W 2 63 DISPUTE IMPAIRED/INTOXICATED
202200292628 5-19 13:03 8000 PHILIPS HWY 95 FRAUD/FORGED (CHECK, ID, RX)
202200292641 5-19 13:02 6800 MERRILL RD 2288 DOMESTIC DISPUTE WITH/ASSAULT
202200292639 5-19 13:01 6300 PHILIPS HWY 1050 TRAFFIC STOP
202200292633 5-19 13:01 OLD ST AUGUSTINE RD / HATTON CHASE LN E 4 AUTO CRASH
202200292566 5-19 13:01 2800 UNIVERSITY BLVD S 63 DISPUTE
202200292627 5-19 13:00 4500 SAN JUAN AVE 3 HIT AND RUN CRASH
202200292638 5-19 13:00 8000 COLLINS RD 12 RECKLESS DRIVER
202200292590 5-19 13:00 ATLANTIC BLVD / WITHROW DR 4 AUTO CRASH
202200292508 5-19 13:00 4400 TOUCHTON RD E 88 ASSAULT
202200292635 5-19 12:59 3900 ROOSEVELT BLVD 4 AUTO CRASH
202200292626 5-19 12:59 7TH ST W / MYRTLE AVE N 9J THEFT JUST OCCURRED
202200292634 5-19 12:58 JTB BLVD / PHILIPS HWY 1050 TRAFFIC STOP
202200292445 5-19 12:57 12700 ELLIS ISLAND DR 6388 DISPUTE WITH ASSAULT
202200292631 5-19 12:57 8100 COLLINS RD 12 RECKLESS DRIVER
202200292630 5-19 12:57 8000 COLLINS RD 12 RECKLESS DRIVER
202200292496 5-19 12:56 2100 12TH ST W 22 DOMESTIC
202200292528 5-19 12:55 MAYPORT RD / SR A1A 4 AUTO CRASH
202200292567 5-19 12:54 1500 PRUDENTIAL DR 21B BURGLARY BUSINESS
202200292524 5-19 12:54 2200 IRONSTONE DR E 27 MENTALLY ILL PERSON
202200292623 5-19 12:54 DUNN AVE / BISCAYNE BLVD 1050 TRAFFIC STOP
202200292399 5-19 12:54 1200 ST CLAIR ST 6388 DISPUTE WITH ASSAULT
202200292616 5-19 12:53 1400 9TH ST W 37 UNVERIFIED 911 CALL
202200292620 5-19 12:53 600 STOCKTON ST 9 THEFT
202200292577 5-19 12:52 8500 ARGYLE BUSINESS LOOP 56 JUVENILE COMPLAINT
202200292578 5-19 12:52 4800 PARK ST 6388 DISPUTE WITH ASSAULT
202200292587 5-19 12:51 9800 SAN JOSE BLVD 86T LOST PROPERTY (TELESERVE)
202200292556 5-19 12:50 7000 COMMONWEALTH AVE 63 DISPUTE
202200292614 5-19 12:49 BUSCH DR / I95 N ON RAMP 4 53 TRAFFIC CRASH PERSON INJURED
202200292613 5-19 12:49 7900 BAYMEADOWS CIR E 8 MISSING PERSON
202200292615 5-19 12:49 4500 BENNETT ST 52 ILLEGAL DUMPING
202200292608 5-19 12:47 8000 COLLINS RD 12 RECKLESS DRIVER
202200292607 5-19 12:47 1300 MAIN ST N 63 DISPUTE
202200292526 5-19 12:46 900 WATER ST 63 DISPUTE
202200292597 5-19 12:46 2500 ST JOHNS BLUFF RD S 4 53 TRAFFIC CRASH PERSON INJURED
202200292603 5-19 12:45 ADAMS ST E / CATHERINE ST 76 ASSIST OTHER AGENCY
202200292542 5-19 12:45 7000 103RD ST 9 THEFT
202200292601 5-19 12:44 APPROX LOC: 8036 COLLINS RD 12 RECKLESS DRIVER
202200292595 5-19 12:44 1700 PRUDENTIAL DR 35 OFFICER NEEDS ASSIST
202200292600 5-19 12:43 SOUTHSIDE BLVD / E ARLXEXIT SS RP 1050 TRAFFIC STOP
202292208090 5-19 12:43 700 SEAGATE AVE 1050 TRAFFIC STOP
202200292572 5-19 12:42 1900 KINGS RD 63 DISPUTE
202200292589 5-19 12:42 5900 ARLINGTON XY 60 SUICIDE OR ATTEMPT
202200292599 5-19 12:42 4600 SHIRLEY AVE 1050 TRAFFIC STOP
202200292594 5-19 12:40 SOUTHSIDE BLVD / A C SKINNER PKWY 1050 TRAFFIC STOP
202200292593 5-19 12:40 100 BUCKMAN BRG N 38 TRAFFIC ASSIGNMENT
202200292592 5-19 12:40 LEM TURNER RD / SNELL ST 1050 TRAFFIC STOP
202200292466 5-19 12:39 1400 LASALLE ST 2 63 DISPUTE IMPAIRED/INTOXICATED
202292208087 5-19 12:39 1700 PRUDENTIAL DR 76 ASSIST OTHER AGENCY
202200292544 5-19 12:39 8500 BEACH BLVD 0 63 ARMED DISPUTE
202200292465 5-19 12:39 6800 WILSON BLVD 63 DISPUTE
202200292565 5-19 12:37 1700 5TH ST W 63 DISPUTE
202200292549 5-19 12:37 1700 BLUE AVE 11 ABANDONED VEHICLE
202200292448 5-19 12:36 600 STOCKTON ST 9 THEFT
202200292573 5-19 12:32 4400 BLANDING BLVD 63 DISPUTE
202200292563 5-19 12:31 BAY ST W / LEE ST N 27 MENTALLY ILL PERSON
202200292571 5-19 12:31 8000 COLLINS RD 12 RECKLESS DRIVER
202200292561 5-19 12:29 FAIR ST / WOODMERE ST 4 AUTO CRASH
202200292564 5-19 12:28 2100 DOCTOR ROY BAKER ST 1066 CANCEL
202200292546 5-19 12:28 600 BEECHWOOD ST 63 DISPUTE
202200292560 5-19 12:28 6500 GREENLAND RD 1050 TRAFFIC STOP
202200292434 5-19 12:27 1300 PRUDENTIAL DR 21C BURGLARY CONVEYANCE
202282009512 5-19 12:27 PIER ONE 1050 TRAFFIC STOP
202200292559 5-19 12:27 7300 COLLINS RD 12 RECKLESS DRIVER
202200292541 5-19 12:27 1700 5TH ST W 60 SUICIDE OR ATTEMPT
202200292555 5-19 12:27 600 SOUTHSIDE CONNECTOR BLVD 1050 TRAFFIC STOP
202200292554 5-19 12:27 LEM TURNER RD / SNELL ST 1050 TRAFFIC STOP
202200292553 5-19 12:27 1000 FOREST ST 13 SUSPICIOUS PERSON
202200292547 5-19 12:24 11500 SAN JOSE BLVD 4 AUTO CRASH
202200292543 5-19 12:22 10900 BEACH BLVD 60 SUICIDE OR ATTEMPT
202200292545 5-19 12:21 SOUTHSIDE BLVD / A C SKINNER PKWY 1050 TRAFFIC STOP
202200292536 5-19 12:18 10900 HECKSCHER DRIVE 12 RECKLESS DRIVER
202200292535 5-19 12:18 12600 MAIN ST N 76 ASSIST OTHER AGENCY
202200292349 5-19 12:18 9800 OLD BAYMEADOWS RD 14B VANDALISM BUSINESS
202200292533 5-19 12:17 2500 MAYPORT RD 4 AUTO CRASH
202282009511 5-19 12:16 MAYPORT/ATLANTIC 1050 TRAFFIC STOP
202200292469 5-19 12:16 800 MONROE ST W 63 DISPUTE
202292208085 5-19 12:16 1500 SPRINKLE DR 19 ANIMAL INVESTIGATION
202200292489 5-19 12:13 100 LIMANN RD 0 63 ARMED DISPUTE
202200292523 5-19 12:12 600 SOUTHSIDE CONNECTOR BLVD 1050 TRAFFIC STOP
202200292521 5-19 12:12 I295 N EBWY AT I95 N NORTHEND 4 AUTO CRASH
202200292522 5-19 12:12 7800 CLOVERLEAF ST 12 RECKLESS DRIVER
202200292348 5-19 12:11 13900 TIFFANY PINES CIR S 63 DISPUTE
202200292415 5-19 12:11 4500 PROSPERITY WAY 14B VANDALISM BUSINESS
202200292500 5-19 12:11 1000 US 301 HWY S 86 LOST PROPERTY
202200292233 5-19 12:11 I295 S OFF RAMP / JTB E ON RAMP 4 AUTO CRASH
202200292515 5-19 12:10 13400 LAS BRISAS WAY N 27 MENTALLY ILL PERSON
202200292514 5-19 12:09 7900 GUM DROP LN 12 RECKLESS DRIVER
202200292507 5-19 12:09 CHAFFEE RD S / CRYSTAL SPRINGS RD 4 53 TRAFFIC CRASH PERSON INJURED
202200292402 5-19 12:07 4800 EMPIRE AVE 95 FRAUD/FORGED (CHECK, ID, RX)
202200292504 5-19 12:07 4600 LENOIR AVE S 76 ASSIST OTHER AGENCY
202200292482 5-19 12:07 1000 CANAL ST 13 SUSPICIOUS PERSON
202200292505 5-19 12:07 600 SS SB 1050 TRAFFIC STOP
202200292498 5-19 12:06 3500 PHILIPS HWY 9 THEFT
202200292463 5-19 12:05 6200 ARLINGTON EXPY 2288 DOMESTIC DISPUTE WITH/ASSAULT
202200292470 5-19 12:04 3400 DOCKSIDER DR N 8 MISSING PERSON
202200292488 5-19 12:04 3600 LENOX AVE 54 ILLEGALLY PARKED CAR
202200292441 5-19 12:03 4700 SOUTEL DR 22 DOMESTIC
202200292499 5-19 12:03 JTBEC/ICW 1050 TRAFFIC STOP
202200292497 5-19 12:02 JTV/BONN 1050 TRAFFIC STOP
202200292468 5-19 12:02 4300 LAKE WOODBOURNE DR 3 HIT AND RUN CRASH
202200292484 5-19 12:01 10100 OLD ST AUGUSTINE RD 38 TRAFFIC ASSIGNMENT
202200292492 5-19 12:01 300 ASHLEY ST E 37 UNVERIFIED 911 CALL
202200292454 5-19 12:01 2800 WOODLAND ST W 0 22 DOMESTIC DISTURBANCE W/WEAPON
202200292224 5-19 12:00 14200 BEACH BLVD 68 CON GAME/FLIM FLAM
202200292490 5-19 12:00 LEM TURNER RD / DUNN AVE 1050 TRAFFIC STOP
202200292481 5-19 11:56 1700 EVERGREEN AVE 63 DISPUTE
202200292407 5-19 11:55 CONNIE JEAN RD / 103RD ST 11 ABANDONED VEHICLE
202200292476 5-19 11:54 3100 ALPIN DR 63 DISPUTE
202292208083 5-19 11:53 2000 HUBBARD ST 5388 ASSAULT INVOLVING INJURY
202200292296 5-19 11:52 3500 PINECREST ST 14R VANDALISM RESIDENCE
202200292478 5-19 11:52 600 SOUTHSIDE CONNECTOR BLVD 1050 TRAFFIC STOP
202200292467 5-19 11:51 I295 N OFF RAMP / BAYMEADOWS RD 3 HIT AND RUN CRASH
202200292473 5-19 11:50 APPROX LOC:1604 13TH ST W 5388 ASSAULT INVOLVING INJURY
202200292475 5-19 11:50 8200 DIX ELLIS TRL 63 DISPUTE
202200292420 5-19 11:50 11200 SAN JOSE BLVD 63 DISPUTE
202200292418 5-19 11:50 2600 DEAN RD 76 ASSIST OTHER AGENCY
202200292250 5-19 11:49 2100 CLEMENTE DR 21C BURGLARY CONVEYANCE
202200292433 5-19 11:48 8200 SAILMAKER LN 95IDT IDENTITY THEFT TELESERVE
202200292369 5-19 11:47 2300 SUNSET BLUFF DR 10R VEHICLE THEFT RECOVERY
202200004772 5-19 11:45 100 U N F DR 96 ASSIST MOTORIST
202200292462 5-19 11:44 HARTSFIELD RD / FT CAROLINE RD 13 SUSPICIOUS PERSON
202200292461 5-19 11:42 8000 COLLINS RD 12 RECKLESS DRIVER
202200292439 5-19 11:40 9300 WHISPER GLEN DR N 2288 DOMESTIC DISPUTE WITH/ASSAULT
202200292453 5-19 11:39 1300 INGLESIDE AVE 60 SUICIDE OR ATTEMPT
202200292395 5-19 11:38 7300 IRONSIDE DR W 50 FOUND/ABANDONED PROPERTY
202292208079 5-19 11:37 5500 FIRESTONE RD 88 ASSAULT
202200292447 5-19 11:36 SOUTHSIDE CONNECTOR/TREDNICK 38 TRAFFIC ASSIGNMENT
202200292442 5-19 11:35 8000 COLLINS RD 12 RECKLESS DRIVER
202200292419 5-19 11:33 13400 YELLOW BLUFF RD 95 FRAUD/FORGED (CHECK, ID, RX)
202200292408 5-19 11:33 1500 16TH ST W 63 DISPUTE
202200292412 5-19 11:33 600 PECAN PARK RD 50 FOUND/ABANDONED PROPERTY
202200292431 5-19 11:31 6500 FIRESTONE RD 60 SUICIDE OR ATTEMPT
202200292422 5-19 11:29 UNIVERSITY BLVD N / PLAYA WAY 22 DOMESTIC
202200292417 5-19 11:28 8800 BAYMEADOWS RD 63 DISPUTE
202200292423 5-19 11:28 500 BAY ST E 86 LOST PROPERTY
202200292306 5-19 11:27 SOUTHSIDE SERVICE RD / A C SKINNER PKWY 16 ROAD OBSTRUCTION
202292208077 5-19 11:27 2200 KERNAN BLVD S 79 OBSCENE / THREAT CALL OR LETTER
202200292390 5-19 11:25 2500 BLUEBERRY LN 13 SUSPICIOUS PERSON
202200292416 5-19 11:24 100 W CHURCH ST 63 DISPUTE
202200292358 5-19 11:23 ARLINGTON XY SERVICE RD / ARLINGTON RD N 68 CON GAME/FLIM FLAM
202200292366 5-19 11:22 6000 MERRILL RD 9J THEFT JUST OCCURRED
202200292410 5-19 11:22 8000 BERRY AVE 27 MENTALLY ILL PERSON
202200292352 5-19 11:21 7900 LEM TURNER RD 95 FRAUD/FORGED (CHECK, ID, RX)
202200292158 5-19 11:21 1200 26TH ST W 21B BURGLARY BUSINESS
202200292128 5-19 11:20 8400 GATE PKWY W 6388 DISPUTE WITH ASSAULT
202200292262 5-19 11:20 10000 ATLANTIC BLVD 9J THEFT JUST OCCURRED
202200292328 5-19 11:19 1900 44TH ST W 1066 CANCEL
202200292362 5-19 11:18 12300 GLIMMER WAY 9T THEFT (TELESERVE)
202200292403 5-19 11:18 JTB E OFF RAMP / GATE PKWY 13 SUSPICIOUS PERSON
202200292391 5-19 11:16 3200 FRANCIS RD 16 ROAD OBSTRUCTION
202200292386 5-19 11:16 5800 NEW KINGS RD 63 DISPUTE
202200292387 5-19 11:16 1100 LANE AVE S 4 AUTO CRASH
202200292393 5-19 11:15 BURPEE DR / LUCENTE DR 54 ILLEGALLY PARKED CAR
202200292363 5-19 11:14 1300 16TH ST W 63 DISPUTE
202200292389 5-19 11:14 3600 GOODRICH RD 4 AUTO CRASH
202200292375 5-19 11:13 2100 45TH ST W 76 ASSIST OTHER AGENCY
202200292388 5-19 11:13 12700 BARTRAM PARK BLVD 14B VANDALISM BUSINESS
202200292136 5-19 11:12 2800 EMILY LN W 27 MENTALLY ILL PERSON
202200292385 5-19 11:11 I295 N ON RAMP / BAYMEADOWS RD 1050 TRAFFIC STOP
202200292380 5-19 11:09 8TH ST W / I95 N ON RAMP 4 53 TRAFFIC CRASH PERSON INJURED
202200292377 5-19 11:05 1500 24TH ST E 52 ILLEGAL DUMPING
202200292376 5-19 11:03 BLANDING BLVD / TOWNSEND RD 76 ASSIST OTHER AGENCY
202200292372 5-19 11:02 EB MLK/8TH 1050 TRAFFIC STOP
202200292367 5-19 11:00 GATE PKWY N / SOUTHSIDE BLVD 1050 TRAFFIC STOP